Location: Blangy-Tronville
(49.8790°N, 2.4226°E)
Time: 03:04:26
(UTC+00:00)

Cosmos 371 Rocket - Pass Details

Date: 18 November 2025
Orbit: 674 x 690 km, 74.0° (Epoch: 04 December)

Event Time Altitude Azimuth Distance (km) Brightness Sun altitude
Rises 18:42:57 0° 209° (SSW) 3,034 7.0 -25.5°
Reaches altitude 10° 18:45:15 10° 212° (SSW) 2,125 6.2 -25.9°
Maximum altitude 18:50:01 68° 296° (WNW) 742 3.5 -26.6°
Enters shadow 18:50:30 63° 334° (NNW) 770 3.5 -26.7°
